Temperature
18 17 17 16 16 16 16 16 16 16 16 16 16 16 15 15 15 16 16 16 15 15 15 15 15 16 16 16 16 16 16 16 16 15 15 15 14 14 14 14 13 14 14
19 17 17 17 16 16 16 16 16 16 16 16 16 16 15 15 16 16 16 16 16 16 15 15 16 16 16 16 16 16 16 16 16 15 15 14 14 14 14 14 14 14 14
19 17 17 16 16 16 16 16 16 16 16 16 16 16 16 16 16 16 16 16 16 16 16 16 16 16 16 16 16 16 16 16 15 15 14 13 14 14 14 14 14 14 14
18 17 16 16 16 16 16 16 16 16 16 16 16 16 16 16 16 16 16 16 17 16 16 16 16 16 16 16 16 16 16 16 15 15 14 13 13 14 14 14 14 14 14
18 16 16 16 16 16 16 16 16 16 16 16 16 16 16 16 16 16 17 17 17 17 17 16 16 16 16 16 16 16 16 16 15 14 14 13 13 14 14 14 14 14 14
17 16 16 16 16 16 16 16 16 16 16 16 16 16 16 16 16 17 17 17 17 17 17 17 16 16 16 16 16 16 16 16 14 14 14 13 14 14 14 14 14 14 14
16 16 16 16 16 16 16 16 17 17 17 17 16 16 16 16 16 17 17 17 17 17 17 17 17 16 16 16 16 16 16 15 14 14 13 13 14 14 14 14 14 14 14
16 16 15 16 16 16 16 17 17 17 17 17 16 16 16 16 16 17 17 17 17 17 17 17 17 16 16 16 16 16 16 15 14 14 14 14 14 14 14 14 14 14 14
15 15 15 15 15 16 16 17 17 17 17 17 16 16 16 16 16 16 16 16 17 17 17 17 17 17 16 16 16 16 15 15 14 14 14 14 14 14 14 14 14 14 14
15 15 15 15 15 15 16 16 17 17 17 17 17 16 16 16 16 16 16 16 16 16 16 16 17 16 16 16 16 16 15 15 14 14 14 14 14 14 14 14 14 14 14
15 15 15 15 15 15 15 16 16 17 17 17 17 17 17 16 16 16 16 16 16 16 16 16 16 16 16 16 16 15 15 14 14 14 14 14 14 14 14 14 14 14 14
15 15 15 15 15 15 15 15 16 16 17 16 16 17 16 16 16 16 17 16 16 16 16 16 16 16 15 15 15 15 15 14 14 14 14 14 14 14 13 13 13 13 13
15 15 15 15 15 15 15 15 15 16 16 16 16 16 16 16 16 16 16 16 16 16 16 16 16 15 15 15 15 15 15 14 14 14 14 14 14 13 13 13 13 13 13
15 15 15 15 15 15 15 15 15 15 16 16 16 16 16 16 16 16 16 16 16 15 15 15 15 14 15 15 14 14 14 14 14 14 14 14 14 13 13 13 13 13 13
15 15 15 15 15 15 15 15 15 15 15 15 16 16 16 16 15 15 15 16 15 15 15 15 14 14 14 14 14 14 14 13 13 13 13 13 13 13 13 13 12 12 12
15 15 15 15 15 15 15 15 15 15 15 15 15 16 16 15 15 15 15 15 15 15 14 14 14 14 13 13 13 13 13 13 13 13 13 13 13 13 13 12 12 12 12
15 15 15 15 15 15 15 14 14 14 14 15 15 15 15 15 15 15 15 14 14 14 14 14 13 13 13 13 13 13 13 13 13 12 12 12 12 12 12 12 12 12 12
16 16 15 15 15 15 15 14 14 14 14 14 14 14 14 14 14 14 14 14 14 14 14 14 13 13 13 13 13 13 13 13 13 13 12 12 12 12 12 12 12 12 11
16 16 16 15 15 15 15 15 15 14 14 14 14 14 14 14 14 14 14 14 14 14 14 13 13 13 13 13 13 13 13 13 13 13 13 13 13 13 12 12 12 12 11
16 16 16 16 15 15 15 15 15 15 15 15 15 15 14 14 14 14 14 14 14 14 14 14 13 13 13 13 13 13 13 13 13 13 13 13 13 13 12 12 12 12 12
16 16 16 16 16 15 15 15 15 15 15 15 15 15 15 14 14 14 14 14 14 14 14 14 13 13 13 13 13 13 13 13 13 13 13 13 12 12 12 12 12 12 11
17 16 16 16 16 16 16 15 15 15 15 15 15 15 15 15 15 14 14 14 14 14 14 14 13 13 13 13 12 12 12 12 12 12 12 12 12 12 12 12 11 11 11
16 16 16 16 16 16 16 16 15 15 15 15 15 15 15 15 14 14 14 14 14 14 14 14 13 13 12 12 12 11 11 12 12 11 11 11 11 11 11 11 11 11 10
16 16 16 16 16 16 16 16 15 15 15 15 15 15 15 14 14 14 14 14 14 13 13 13 13 13 12 11 11 11 11 11 10 11 10 10 10 10 10 10 10 10 10
16 16 16 16 16 16 16 15 15 15 15 15 14 14 14 14 14 14 13 13 13 13 13 13 13 12 12 11 11 10 10 10 10 9 10 10 10 10 9 9 9 9 9
15 15 15 15 15 15 15 15 15 14 14 14 14 14 13 13 13 13 13 13 12 12 12 12 12 11 11 10 10 10 10 9 9 9 9 9 9 9 9 9 9 8 8
Wind_Speed
13 18 21 19 18 17 16 15 15 14 13 12 12 12 12 13 14 14 14 15 15 16 17 18 19 18 18 17 17 16 16 15 15 14 13 13 13 13 11 9 8 12 12
17 20 22 20 18 17 16 15 15 13 12 12 11 11 12 13 14 14 14 15 15 16 17 18 18 17 17 16 16 15 15 14 13 12 9 11 12 12 12 11 12 10 10
18 20 21 19 18 17 16 15 14 13 12 11 11 11 12 13 14 14 14 15 15 16 17 17 17 16 15 14 14 13 13 12 11 7 4 10 11 11 10 10 10 10 9
19 19 20 20 18 18 17 15 14 12 11 10 10 11 12 13 14 14 14 15 15 16 16 15 15 14 13 13 12 12 11 11 8 4 8 10 10 11 11 11 10 10 9
18 18 19 20 19 18 17 15 13 12 11 10 10 11 13 13 14 14 14 15 14 14 14 14 13 13 12 12 12 11 11 9 6 7 10 9 10 11 12 12 12 12 11
17 17 19 19 19 18 17 15 13 12 11 10 10 11 13 13 14 14 14 14 13 13 12 12 12 11 11 11 11 10 9 6 4 9 9 9 10 10 11 11 11 11 10
16 16 19 19 19 18 17 15 13 12 11 11 11 11 12 13 14 13 13 12 12 11 11 11 10 10 10 10 10 9 8 5 7 7 7 8 10 9 9 9 9 10 10
15 15 18 19 19 18 17 15 13 11 10 10 11 11 12 13 13 12 11 10 10 10 9 9 9 8 8 8 8 7 6 3 5 6 6 7 8 7 8 8 8 9 9
14 14 16 17 18 18 17 15 13 11 10 10 11 11 12 13 12 10 9 8 8 8 8 7 7 6 6 6 6 5 4 1 2 4 4 5 5 5 6 6 7 7 8
12 13 14 15 16 15 14 14 12 11 10 10 11 12 13 13 11 9 8 7 6 6 6 5 5 5 5 4 4 4 3 3 1 1 1 3 3 3 4 4 5 5 6
12 11 12 13 13 13 12 13 12 11 10 10 11 12 11 8 8 7 6 6 5 4 4 3 3 4 4 3 3 2 4 3 2 2 2 1 1 1 1 1 2 3 3
14 12 10 12 12 12 10 11 9 9 10 9 9 10 7 6 4 4 6 4 3 3 3 3 2 4 4 3 3 4 4 4 4 4 3 2 4 4 3 2 1 1 1
13 11 10 10 12 11 9 9 7 7 8 8 8 8 7 6 5 5 5 5 5 5 5 4 5 4 4 3 4 4 4 5 5 5 5 5 7 8 6 5 4 3 2
11 12 11 10 10 11 10 9 8 7 7 7 8 8 7 6 5 5 5 5 5 6 5 5 5 5 5 5 6 6 6 6 6 6 6 7 10 11 10 9 8 7 6
10 11 11 10 10 10 9 8 8 7 7 7 7 8 8 6 6 6 6 6 6 6 6 6 6 6 6 6 7 7 8 8 8 8 8 10 13 13 13 12 11 10 9
10 11 10 11 10 10 9 8 8 8 7 7 7 8 9 7 6 6 6 6 7 7 7 7 7 7 7 7 8 9 9 10 10 10 10 10 14 16 16 16 15 14 13
11 10 10 10 10 10 10 9 8 8 8 7 7 8 9 9 8 7 6 6 7 8 8 8 8 8 7 7 9 10 10 10 11 11 11 11 11 15 19 19 19 18 17
10 10 10 9 11 11 10 9 8 8 8 8 8 8 9 10 10 8 7 7 8 8 8 7 7 7 7 8 8 8 8 9 11 12 12 12 12 11 14 20 21 21 20
9 10 10 11 11 11 10 9 9 8 8 8 7 8 9 10 11 10 8 9 9 8 8 7 7 7 8 8 8 8 8 8 10 11 12 13 13 13 13 13 18 22 22
8 9 9 10 10 9 8 7 6 7 7 7 7 8 9 9 10 10 9 10 10 7 8 8 9 8 8 8 7 8 9 10 9 10 11 11 11 12 13 13 12 15 20
7 8 9 9 9 8 6 6 6 6 6 6 6 7 8 8 9 9 8 9 8 8 9 10 9 9 8 7 5 7 9 10 10 9 8 8 9 10 10 11 10 11 11
7 7 8 8 8 8 7 5 4 4 4 4 4 5 5 6 7 8 8 7 7 7 10 10 9 7 6 6 5 5 6 7 8 7 7 6 7 7 7 8 9 9 10
7 7 6 7 7 7 7 5 4 3 3 4 4 3 3 4 5 6 8 8 7 7 8 9 9 10 8 7 7 7 6 6 5 4 5 5 5 4 5 5 6 7 8
6 5 6 6 6 6 6 6 7 6 6 5 3 3 2 2 3 4 5 6 6 6 8 8 8 8 9 9 7 8 10 8 6 5 4 4 4 4 4 4 5 5 6
7 6 6 6 6 5 5 5 6 5 4 3 2 3 2 1 1 2 3 4 5 5 6 7 8 8 8 9 8 6 8 8 9 8 8 6 5 4 3 4 4 4 5
7 7 7 7 6 5 5 4 4 4 4 4 3 3 2 2 1 1 2 3 4 4 5 6 7 8 8 9 8 8 7 7 7 7 9 7 6 3 2 2 3 3 4
Wind_Direction
161 158 149 150 148 143 139 132 125 118 114 113 112 110 107 102 96 90 87 86 87 89 91 91 90 89 87 85 83 80 76 72 69 66 66 64 64 68 68 57 58 72 63
154 155 148 150 149 145 140 131 124 119 116 115 115 114 110 106 99 94 91 90 91 93 94 93 91 88 86 85 83 81 78 74 69 64 69 80 68 64 62 53 47 60 58
152 153 152 150 148 144 138 131 126 122 119 119 119 118 114 110 103 98 95 93 94 95 95 93 90 87 85 84 83 81 78 73 68 61 69 79 76 64 60 55 54 54 52
152 154 156 147 147 143 138 133 128 125 122 123 123 122 118 113 107 102 98 96 96 96 95 92 88 85 83 83 83 81 78 74 65 44 70 69 71 63 58 56 55 54 52
152 155 148 146 146 142 139 135 131 127 124 127 128 127 121 116 111 105 101 99 99 99 97 93 88 84 83 82 82 82 81 77 73 69 71 67 67 60 57 53 52 54 53
152 153 147 147 144 141 139 137 134 131 129 130 131 130 124 118 112 107 105 103 103 102 101 96 88 83 83 83 84 86 83 75 82 72 68 63 64 61 54 48 45 44 43
152 152 150 146 143 142 141 139 138 134 132 133 136 134 128 120 114 110 108 108 107 106 104 99 91 84 83 85 86 89 86 65 69 74 66 63 59 54 50 45 42 41 41
152 152 150 147 145 144 143 143 141 138 135 137 141 135 130 123 117 115 114 113 112 110 108 104 97 90 88 91 93 95 93 70 78 70 63 65 57 47 48 45 42 40 39
155 155 154 156 152 147 146 146 144 142 137 134 137 134 129 125 123 122 121 119 116 112 109 108 105 100 96 97 103 105 105 82 42 64 55 56 52 45 49 44 38 36 35
161 161 159 160 158 157 154 148 146 144 137 129 131 130 130 130 128 129 135 123 120 117 113 111 110 107 104 104 114 128 148 225 9 46 31 61 39 33 50 42 35 34 34
168 167 165 162 160 161 156 152 153 149 143 141 138 136 146 156 153 154 132 125 127 127 125 125 122 119 127 133 140 175 219 264 294 302 309 58 298 308 46 49 33 29 33
175 172 169 166 164 162 155 162 165 162 164 174 165 165 176 172 166 161 141 154 154 152 158 155 148 170 217 212 185 216 250 267 273 272 270 233 260 264 252 230 245 322 6
180 175 174 172 172 169 165 169 170 172 172 178 178 178 181 182 181 192 191 187 198 203 211 190 215 227 244 257 262 256 270 274 271 272 257 230 252 258 255 239 232 240 244
188 185 182 179 180 180 176 178 181 183 183 185 188 192 194 200 208 211 219 217 220 221 229 237 246 243 249 250 256 263 259 260 265 269 265 239 247 254 256 251 236 235 237
200 196 191 188 187 186 186 186 191 196 196 194 194 201 207 212 218 220 228 227 231 235 235 241 248 252 257 260 259 262 264 262 262 261 260 242 243 248 253 255 247 237 235
210 206 199 196 197 194 195 197 201 205 205 207 205 209 213 221 226 230 234 234 237 236 241 247 252 259 262 263 267 265 266 266 262 260 261 252 239 241 245 248 249 245 239
213 212 206 202 202 203 205 206 210 211 210 214 216 217 218 224 230 233 241 241 242 241 244 250 257 260 263 264 265 265 265 266 265 264 260 259 253 240 239 243 246 246 242
211 210 207 201 205 208 211 210 214 217 216 220 222 224 225 229 232 236 241 246 248 248 247 250 256 257 257 258 264 266 264 263 265 266 263 256 256 255 244 238 242 246 246
208 207 207 205 206 208 211 213 219 220 221 225 225 228 229 232 234 235 243 249 251 248 248 248 251 253 260 262 265 271 271 268 268 264 262 260 255 253 257 248 240 244 247
205 204 206 206 209 206 205 211 216 223 226 228 228 230 233 235 236 238 244 250 252 249 250 249 250 251 258 269 274 273 272 270 265 262 264 263 257 255 256 260 254 248 243
197 196 200 203 204 200 198 204 211 220 221 224 229 234 237 241 241 240 245 250 247 248 253 255 254 256 253 252 258 270 267 261 260 260 259 263 262 260 260 260 260 261 256
193 191 193 198 198 198 201 204 213 214 219 223 222 229 238 245 246 245 246 250 250 251 255 255 250 250 253 235 240 266 277 271 247 245 250 254 266 268 266 266 265 265 267
193 188 186 187 190 193 191 186 184 190 201 207 214 222 241 251 252 250 253 255 255 250 254 256 251 247 254 247 234 244 261 271 282 233 234 245 258 266 272 277 276 275 274
184 173 175 174 174 178 183 192 201 211 220 220 218 219 232 248 261 267 265 265 264 260 260 263 259 253 254 254 242 237 249 269 270 272 240 239 247 263 275 280 285 286 286
170 164 161 160 155 160 172 181 195 207 213 203 208 219 225 221 270 306 289 279 273 271 269 269 265 258 252 255 252 243 242 246 246 256 267 256 244 252 275 290 298 307 315
167 160 159 155 143 139 144 159 181 192 197 203 216 225 228 225 238 341 323 299 290 285 279 275 269 263 257 257 256 251 248 246 240 242 255 259 257 254 268 300 312 328 339
Height
1546 1549 1551 1554 1557 1559 1561 1562 1563 1563 1563 1563 1563 1563 1563 1563 1563 1562 1562 1561 1561 1562 1562 1563 1563 1564 1564 1564 1564 1564 1564 1563 1563 1563 1563 1563 1563 1563 1562 1562 1562 1561 1559
1545 1549 1551 1555 1558 1560 1562 1563 1564 1564 1565 1565 1565 1565 1565 1565 1565 1564 1564 1563 1563 1563 1564 1565 1565 1565 1566 1566 1566 1566 1566 1566 1565 1565 1565 1566 1565 1565 1565 1564 1563 1563 1562
1546 1549 1551 1555 1558 1561 1563 1564 1565 1565 1566 1566 1566 1567 1567 1567 1567 1566 1566 1566 1565 1566 1566 1567 1567 1567 1568 1568 1568 1568 1568 1568 1568 1568 1568 1569 1568 1567 1567 1566 1565 1565 1564
1547 1550 1553 1556 1559 1562 1563 1565 1566 1566 1567 1567 1568 1568 1569 1569 1569 1569 1569 1568 1568 1568 1569 1569 1569 1570 1570 1570 1570 1570 1570 1570 1570 1570 1572 1571 1571 1569 1569 1568 1567 1567 1566
1547 1551 1554 1556 1560 1562 1564 1566 1567 1567 1568 1568 1569 1570 1571 1571 1571 1571 1571 1571 1571 1571 1572 1572 1572 1572 1573 1573 1573 1573 1573 1573 1573 1573 1573 1573 1572 1571 1571 1570 1569 1568 1567
1548 1552 1554 1557 1560 1563 1565 1566 1567 1568 1569 1570 1571 1572 1572 1573 1573 1574 1574 1574 1574 1574 1574 1574 1575 1575 1575 1575 1575 1575 1575 1575 1575 1575 1575 1575 1574 1573 1572 1571 1570 1569 1568
1549 1553 1555 1558 1561 1563 1565 1567 1568 1569 1570 1571 1572 1573 1574 1575 1575 1575 1576 1576 1576 1576 1577 1577 1577 1577 1577 1577 1577 1577 1577 1577 1577 1577 1576 1576 1575 1574 1573 1572 1570 1569 1568
1550 1553 1556 1559 1562 1564 1566 1567 1569 1570 1571 1572 1573 1574 1575 1576 1576 1577 1577 1578 1578 1578 1578 1579 1579 1579 1579 1579 1579 1579 1578 1578 1578 1578 1577 1577 1575 1574 1573 1572 1571 1569 1568
1551 1554 1557 1559 1562 1564 1566 1568 1569 1570 1572 1573 1574 1575 1576 1577 1578 1578 1579 1579 1579 1580 1580 1580 1580 1580 1580 1580 1580 1580 1580 1579 1580 1579 1578 1577 1576 1575 1573 1572 1571 1569 1568
1551 1555 1557 1560 1562 1564 1566 1568 1569 1571 1572 1573 1574 1576 1577 1578 1578 1579 1579 1580 1580 1580 1580 1580 1581 1581 1581 1581 1581 1580 1580 1580 1580 1579 1578 1577 1576 1575 1574 1572 1571 1569 1568
1552 1555 1558 1560 1562 1565 1566 1567 1569 1570 1572 1573 1575 1576 1577 1578 1579 1579 1579 1580 1580 1581 1581 1581 1581 1581 1581 1581 1581 1580 1580 1580 1580 1579 1578 1577 1576 1575 1574 1572 1571 1569 1568
1552 1555 1557 1560 1562 1564 1566 1567 1569 1570 1572 1573 1575 1576 1577 1578 1579 1579 1579 1580 1580 1580 1581 1581 1581 1580 1580 1580 1580 1580 1580 1579 1579 1578 1577 1576 1575 1574 1573 1572 1571 1569 1567
1552 1554 1557 1559 1561 1564 1565 1567 1569 1570 1571 1572 1574 1575 1576 1577 1578 1578 1579 1579 1580 1580 1580 1580 1580 1580 1580 1579 1579 1579 1578 1578 1578 1577 1576 1575 1574 1573 1572 1571 1570 1568 1567
1551 1553 1556 1558 1560 1563 1565 1566 1568 1569 1570 1571 1572 1573 1575 1576 1576 1577 1578 1578 1578 1579 1579 1579 1579 1579 1578 1578 1578 1577 1577 1576 1576 1575 1574 1573 1572 1571 1570 1569 1568 1567 1566
1550 1552 1554 1557 1559 1561 1563 1565 1567 1568 1569 1570 1571 1572 1573 1574 1575 1576 1576 1576 1577 1577 1578 1578 1578 1578 1577 1577 1576 1576 1575 1575 1574 1573 1572 1571 1570 1569 1568 1567 1566 1565 1564
1549 1551 1553 1555 1557 1559 1562 1564 1565 1567 1568 1569 1569 1570 1571 1572 1573 1574 1574 1575 1575 1576 1576 1576 1576 1576 1575 1575 1574 1574 1573 1572 1571 1570 1569 1568 1567 1566 1566 1565 1564 1563 1562
1547 1549 1551 1553 1555 1557 1560 1562 1564 1565 1566 1567 1568 1569 1569 1570 1571 1572 1572 1573 1573 1574 1574 1574 1574 1573 1573 1572 1572 1571 1570 1570 1569 1568 1566 1565 1564 1563 1562 1562 1561 1560 1559
1545 1547 1549 1551 1553 1556 1558 1560 1562 1563 1564 1565 1566 1567 1568 1568 1569 1570 1570 1571 1571 1571 1571 1571 1571 1571 1570 1570 1569 1569 1567 1566 1565 1564 1563 1562 1561 1560 1559 1558 1558 1557 1556
1543 1545 1547 1549 1552 1554 1556 1558 1559 1561 1562 1563 1564 1564 1565 1566 1567 1567 1568 1569 1569 1569 1568 1568 1568 1567 1567 1566 1566 1564 1563 1562 1561 1560 1559 1558 1556 1556 1555 1554 1553 1552 1552
1540 1542 1545 1547 1549 1552 1554 1555 1557 1558 1559 1560 1561 1562 1563 1563 1564 1564 1565 1565 1565 1565 1565 1565 1564 1563 1563 1562 1561 1559 1558 1557 1556 1555 1554 1553 1552 1551 1550 1549 1548 1547 1546
1537 1539 1542 1544 1547 1549 1550 1552 1554 1555 1556 1557 1558 1559 1559 1560 1560 1561 1561 1561 1561 1561 1561 1560 1560 1559 1558 1557 1556 1554 1553 1552 1551 1550 1549 1548 1547 1546 1545 1544 1543 1542 1541
1534 1536 1539 1541 1543 1546 1548 1549 1551 1552 1553 1554 1554 1555 1555 1556 1556 1556 1556 1556 1556 1556 1555 1555 1554 1553 1552 1552 1551 1550 1548 1548 1545 1544 1544 1544 1543 1542 1541 1540 1539 1537 1536
1531 1533 1536 1538 1540 1542 1544 1546 1548 1549 1549 1550 1550 1550 1551 1551 1551 1551 1551 1551 1550 1550 1549 1549 1548 1548 1547 1546 1546 1546 1545 1542 1542 1540 1539 1539 1539 1538 1537 1536 1534 1533 1532
1527 1529 1532 1534 1536 1539 1541 1542 1544 1545 1545 1545 1546 1546 1546 1546 1546 1546 1545 1545 1545 1544 1543 1543 1542 1541 1541 1540 1540 1539 1539 1539 1538 1536 1535 1534 1534 1533 1532 1531 1530 1529 1527
1523 1525 1528 1530 1532 1534 1536 1538 1539 1540 1541 1541 1541 1541 1541 1540 1540 1540 1539 1539 1538 1538 1537 1536 1536 1535 1534 1534 1534 1533 1533 1532 1532 1531 1530 1530 1529 1528 1528 1527 1525 1524 1523
1519 1521 1524 1526 1528 1530 1532 1533 1535 1536 1536 1536 1536 1536 1535 1535 1534 1534 1533 1533 1532 1532 1531 1530 1529 1529 1528 1528 1528 1527 1527 1527 1526 1526 1525 1524 1524 1524 1523 1522 1521 1520 1518